Location: Taupo
(38.6830°S, 176.0830°E)
Time: 22:07:20
(UTC+13:00)

Nimbus 7 Rocket - Pass Details

Date: 24 January 2019
Orbit: 922 x 965 km, 99.4° (Epoch: 17 October)

Event Time Altitude Azimuth Distance (km) Brightness Sun altitude
Exits shadow 22:36:43 34° 35° (NE) 1,492 4.9 -19.6°
Maximum altitude 22:39:21 68° 107° (ESE) 1,013 4.4 -19.9°
Drops below altitude 10° 22:45:20 10° 189° (S) 2,693 7.6 -20.7°
Sets 22:47:49 0° 191° (S) 3,651 8.5 -21.0°
